[[{"header":{"parameterUnit":"m.s-1","parameterCategory":1,"la1":30.2991,"la2":30.254,"lo1":-89.0895,"lo2":-89.0444,"dy":0.0017,"dx":0.0017,"nx":28,"ny":28,"refTime":"2024-04-21T03:00:00:Z","depth":0,"parameterNumber":2,"parameterNumberName":"U-component_of_WINDS"},"data":[0,0,0,0,0,0,0,0,0,0,0,0,0,0,0,0,0,0,0,0,0,0,0,0,0,0,0,0,0,0,0,0,0,0,0,0,0,0,0,0,0,0,0,0,0,0,0,0,0,0,0,0,0,0,0,0,0,0,-1.6413,-1.6412,0,-1.6381,-1.6381,-1.638,-1.6335,-1.6334,-1.6334,-1.6333,-1.6301,-1.63,-1.63,0,0,0,0,0,0,0,0,0,0,0,0,0,-1.6434,-1.6434,-1.6413,-1.6412,-1.6412,-1.6381,-1.6381,-1.638,-1.6335,-1.6334,-1.6333,-1.6333,-1.6301,-1.63,-1.63,0,0,0,0,0,0,0,0,0,0,0,0,0,-1.6416,-1.6434,-1.6413,-1.6386,-1.6383,-1.6381,-1.6381,-1.638,-1.6336,-1.6334,-1.6333,-1.6332,-1.6301,-1.63,-1.63,-1.6322,0,0,-1.63,-1.6299,0,0,0,0,0,0,0,0,-1.6417,-1.6415,-1.639,-1.6388,-1.6385,-1.6361,-1.6376,-1.6361,-1.6336,-1.6354,-1.6333,-1.6332,-1.6322,-1.632,-1.6316,-1.6321,-1.6319,-1.63,-1.6299,-1.6299,-1.6299,0,0,0,0,0,0,0,-1.6419,-1.6416,-1.64,-1.639,-1.6387,-1.6375,-1.6371,-1.6373,-1.6345,-1.6352,-1.6349,-1.6346,-1.632,-1.6316,-1.6315,-1.6319,-1.63,-1.6299,-1.6299,-1.6299,-1.6339,-1.634,0,0,0,0,0,0,-1.6424,-1.6418,-1.6401,-1.6399,-1.6398,-1.6376,-1.6372,-1.637,-1.6344,-1.6339,-1.6347,-1.6344,-1.6317,-1.6315,-1.6314,-1.6337,-1.6299,-1.6299,-1.6299,-1.6338,-1.6339,-1.634,0,0,0,0,0,0,-1.6424,-1.6423,-1.6403,-1.6408,-1.6404,-1.6377,-1.6375,-1.637,-1.6366,-1.634,-1.6335,-1.6348,-1.6316,-1.6314,-1.632,-1.6335,-1.6299,-1.6299,-1.6336,-1.6338,-1.634,-1.6385,0,0,0,0,0,0,-1.6425,-1.6423,-1.6431,-1.6408,-1.6404,-1.641,-1.6376,-1.637,-1.6366,-1.6362,-1.6341,-1.6336,-1.6315,-1.6321,-1.632,-1.6334,-1.6299,-1.6335,-1.6337,-1.6339,-1.6382,-1.6388,-1.6393,0,0,0,0,0,-1.6426,-1.6446,-1.6432,-1.643,-1.6414,-1.6411,-1.6408,-1.6384,-1.6367,-1.6375,-1.6358,-1.6337,-1.6334,-1.6322,-1.6321,-1.6335,-1.6334,-1.6336,-1.6339,-1.6379,-1.6387,-1.6393,0,0,0,0,0,0,-1.6472,-1.6442,-1.6427,-1.6439,-1.6428,-1.6403,-1.6412,-1.6393,-1.6386,-1.6383,-1.6353,-1.6348,-1.6358,-1.6347,-1.6334,-1.6355,-1.633,-1.6333,-1.6361,-1.6368,-1.6374,-1.6376,-1.6299,0,0,0,0,0,-1.6483,-1.6483,-1.6457,-1.6471,-1.6466,-1.644,-1.6438,-1.642,-1.6407,-1.6402,-1.6386,-1.6374,-1.637,-1.6369,-1.6364,-1.638,-1.6374,-1.6389,-1.6395,-1.64,-1.6402,-1.6409,-1.6415,-1.6349,-1.6349,-1.6349,0,0,-1.6507,-1.6491,-1.6492,-1.6479,-1.6469,-1.6469,-1.6436,-1.6439,-1.6439,-1.6403,-1.6407,-1.6395,-1.638,-1.6391,-1.6395,-1.6382,-1.6419,-1.6403,-1.6407,-1.6407,-1.6412,-1.6419,-1.6424,-1.6351,-1.635,-1.635,0,0,-1.655,-1.6538,-1.6548,-1.6537,-1.6521,-1.6504,-1.6506,-1.6484,-1.6475,-1.6479,-1.6452,-1.6451,-1.6446,-1.6436,-1.643,-1.6469,-1.6449,-1.6469,-1.6498,-1.6505,-1.651,-1.6515,-1.6528,-1.6533,-1.6471,-1.6471,-1.6471,0,-1.6581,-1.6581,-1.6555,-1.6559,-1.6554,-1.6521,-1.653,-1.6521,-1.6505,-1.6502,-1.6488,-1.648,-1.6467,-1.6475,-1.6485,-1.6481,-1.6483,-1.6471,-1.6512,-1.6516,-1.652,-1.6532,-1.6537,-1.6474,-1.6473,-1.6473,-1.6473,0,-1.6621,-1.6621,-1.6631,-1.6615,-1.6611,-1.6618,-1.6592,-1.6591,-1.6574,-1.6558,-1.6562,-1.6546,-1.6537,-1.6538,-1.6521,-1.6543,-1.6536,-1.6517,-1.6492,-1.6529,-1.654,-1.6545,-1.6477,-1.6476,-1.6476,-1.6475,0,0,-1.6692,-1.6661,-1.6665,-1.6657,-1.6637,-1.6637,-1.6642,-1.6633,-1.6632,-1.6622,-1.6625,-1.6621,-1.6603,-1.6597,-1.6578,-1.6585,-1.6616,-1.6565,-1.6564,-1.6575,-1.6639,-1.6652,-1.6658,-1.6602,-1.6603,-1.6604,-1.664,0,-1.6731,-1.6738,-1.6714,-1.6727,-1.6726,-1.6695,-1.6699,-1.6687,-1.6672,-1.6669,-1.6653,-1.665,-1.6628,-1.6623,-1.6628,-1.6611,-1.6628,-1.6608,-1.6604,-1.6604,-1.6609,-1.6664,-1.6679,-1.6714,-1.6644,-1.6645,-1.6645,0,-1.6778,-1.6769,-1.6782,-1.676,-1.6759,-1.6763,-1.6753,-1.6751,-1.6736,-1.6725,-1.6718,-1.6696,-1.6699,-1.6675,-1.6679,-1.6665,-1.6662,-1.6654,-1.6654,-1.6653,-1.6627,-1.6664,-1.6725,-1.673,-1.6652,-1.6651,-1.6651,0,-1.6828,-1.682,-1.6826,-1.682,-1.6795,-1.6799,-1.6789,-1.6773,-1.6769,-1.676,-1.6757,-1.6748,-1.6744,-1.6737,-1.6714,-1.6699,-1.672,-1.6694,-1.671,-1.6711,-1.6716,-1.6716,-1.6777,-1.6715,-1.6715,-1.6715,-1.6714,0,-1.6874,-1.6883,-1.6848,-1.6852,-1.6861,-1.6833,-1.6843,-1.6829,-1.6815,-1.6816,-1.6788,-1.6789,-1.6759,-1.6756,-1.6738,-1.6743,-1.6741,-1.6732,-1.6727,-1.6734,-1.6735,-1.6732,-1.6728,-1.6716,-1.6716,-1.6715,-1.6715,0,-1.6931,-1.6909,-1.6913,-1.6889,-1.6883,-1.6891,-1.687,-1.6872,-1.6856,-1.6856,-1.6855,-1.6829,-1.6824,-1.6801,-1.6791,-1.6778,-1.679,-1.678,-1.6795,-1.6791,-1.6808,-1.6807,-1.6868,-1.6875,-1.681,-1.681,-1.6811,0,-1.6962,-1.6968,-1.6944,-1.6943,-1.6934,-1.6931,-1.6927,-1.69,-1.6897,-1.688,-1.6884,-1.6878,-1.6871,-1.6865,-1.6845,-1.6837,-1.6826,-1.6849,-1.6825,-1.6832,-1.6826,-1.6826,-1.6826,-1.6854,-1.6854,-1.6855,-1.6856,0,-1.7019,-1.7007,-1.7002,-1.6993,-1.6989,-1.698,-1.697,-1.697,-1.694,-1.6938,-1.6933,-1.6927,-1.6917,-1.691,-1.6899,-1.6888,-1.6867,-1.6863,-1.6866,-1.6874,-1.6882,-1.6877,-1.6808,-1.6862,-1.6861,-1.6861,-1.6861,-1.686,-1.7064,-1.7067,-1.7051,-1.7046,-1.7035,-1.7027,-1.7027,-1.7011,-1.7006,-1.6995,-1.698,-1.6977,-1.6961,-1.6943,-1.6934,-1.6931,-1.6919,-1.6924,-1.6925,-1.6926,-1.693,-1.6883,-1.6929,-1.6929,-1.6929,-1.6928,-1.6928,0,-1.7119,-1.7106,-1.7102,-1.7089,-1.7085,-1.7065,-1.7053,-1.7051,-1.7048,-1.7036,-1.7029,-1.7023,-1.7016,-1.6996,-1.6987,-1.6988,-1.6978,-1.6987,-1.6986,-1.6984,-1.6941,-1.6939,-1.6995,-1.6995,-1.6995,-1.6995,-1.6995,-1.6995,-1.7147,-1.7152,-1.7138,-1.7137,-1.7125,-1.7122,-1.7116,-1.7107,-1.7097,-1.7091,-1.7086,-1.7072,-1.7056,-1.7046,-1.7039,-1.7032,-1.703,-1.7042,-1.7033,-1.6993,-1.6987,-1.6981,-1.6979,-1.7042,-1.7042,-1.7075,-1.7076,-1.7076]},{"header":{"parameterUnit":"m.s-1","parameterCategory":1,"la1":30.2991,"la2":30.254,"lo1":-89.0895,"lo2":-89.0444,"dy":0.0017,"dx":0.0017,"nx":28,"ny":28,"refTime":"2024-04-21T03:00:00:Z","depth":0,"parameterNumber":3,"parameterNumberName":"V-component_of_WINDS"},"data":[0,0,0,0,0,0,0,0,0,0,0,0,0,0,0,0,0,0,0,0,0,0,0,0,0,0,0,0,0,0,0,0,0,0,0,0,0,0,0,0,0,0,0,0,0,0,0,0,0,0,0,0,0,0,0,0,0,0,-7.324,-7.3241,0,-7.329,-7.329,-7.3291,-7.3214,-7.3211,-7.3208,-7.3206,-7.325,-7.3254,-7.3257,0,0,0,0,0,0,0,0,0,0,0,0,0,-7.3075,-7.3079,-7.324,-7.3241,-7.3242,-7.329,-7.329,-7.3291,-7.3214,-7.3211,-7.3208,-7.3205,-7.3249,-7.3253,-7.3258,0,0,0,0,0,0,0,0,0,0,0,0,0,-7.3138,-7.308,-7.324,-7.3209,-7.3207,-7.3289,-7.329,-7.3291,-7.3215,-7.3211,-7.3207,-7.3203,-7.3248,-7.3253,-7.3258,-7.3372,0,0,-7.3275,-7.3278,0,0,0,0,0,0,0,0,-7.3134,-7.3144,-7.3213,-7.3212,-7.3209,-7.3242,-7.3248,-7.3318,-7.3216,-7.3212,-7.3206,-7.3201,-7.325,-7.3255,-7.3273,-7.3374,-7.3376,-7.3276,-7.3279,-7.3281,-7.3283,0,0,0,0,0,0,0,-7.313,-7.3141,-7.326,-7.3214,-7.3212,-7.3191,-7.3196,-7.3261,-7.3252,-7.3212,-7.3206,-7.3213,-7.3248,-7.3268,-7.3273,-7.3376,-7.3276,-7.328,-7.3284,-7.3286,-7.3574,-7.3578,0,0,0,0,0,0,-7.313,-7.3138,-7.3258,-7.3261,-7.3161,-7.3198,-7.3203,-7.3235,-7.3251,-7.325,-7.3217,-7.321,-7.326,-7.3267,-7.3275,-7.341,-7.3281,-7.3286,-7.329,-7.357,-7.3575,-7.358,0,0,0,0,0,0,-7.3127,-7.3142,-7.3256,-7.3198,-7.3211,-7.3205,-7.3242,-7.3238,-7.3258,-7.3255,-7.3253,-7.3239,-7.3258,-7.3267,-7.3349,-7.341,-7.3289,-7.3294,-7.3565,-7.3571,-7.3578,-7.368,0,0,0,0,0,0,-7.3123,-7.3141,-7.3185,-7.32,-7.3215,-7.3331,-7.3245,-7.3242,-7.3268,-7.3259,-7.3275,-7.3274,-7.3255,-7.3341,-7.3354,-7.3415,-7.3298,-7.3559,-7.3568,-7.3575,-7.3671,-7.3689,-7.3704,0,0,0,0,0,-7.3117,-7.321,-7.3188,-7.3202,-7.327,-7.3335,-7.3343,-7.3321,-7.3273,-7.3317,-7.3316,-7.3274,-7.3401,-7.335,-7.3364,-7.3428,-7.3555,-7.3565,-7.3575,-7.3663,-7.3685,-7.3704,0,0,0,0,0,0,-7.3199,-7.3211,-7.3186,-7.3288,-7.3311,-7.3322,-7.3376,-7.3345,-7.3381,-7.3371,-7.334,-7.3344,-7.3433,-7.3438,-7.3381,-7.3539,-7.347,-7.3483,-7.3532,-7.3553,-7.357,-7.3567,-7.3303,0,0,0,0,0,-7.323,-7.3284,-7.329,-7.3379,-7.3392,-7.3383,-7.341,-7.3391,-7.3413,-7.3422,-7.3427,-7.3449,-7.3494,-7.3524,-7.3565,-7.3671,-7.3674,-7.3722,-7.3739,-7.3753,-7.3764,-7.3822,-7.3844,-7.3612,-7.3612,-7.3612,0,0,-7.3292,-7.3305,-7.3341,-7.3396,-7.3412,-7.3467,-7.3391,-7.3452,-7.3492,-7.3431,-7.3509,-7.3514,-7.3536,-7.3631,-7.3673,-7.3638,-7.3829,-7.3765,-7.3776,-7.378,-7.3835,-7.3857,-7.3876,-7.3619,-7.3618,-7.3617,0,0,-7.3434,-7.345,-7.3526,-7.3545,-7.3571,-7.3564,-7.3583,-7.3599,-7.3601,-7.3679,-7.3635,-7.3682,-7.376,-7.3778,-7.3797,-7.395,-7.3912,-7.3964,-7.4051,-7.4108,-7.4126,-7.4142,-7.4197,-7.4217,-7.3975,-7.3975,-7.3976,0,-7.3508,-7.3591,-7.3568,-7.3634,-7.3659,-7.3609,-7.3686,-7.3704,-7.3742,-7.376,-7.3721,-7.382,-7.3831,-7.393,-7.3968,-7.3985,-7.4005,-7.3961,-7.4126,-7.4141,-7.4156,-7.4208,-7.4229,-7.3981,-7.3981,-7.398,-7.398,0,-7.3681,-7.3739,-7.3797,-7.3838,-7.387,-7.394,-7.3928,-7.3963,-7.3942,-7.3939,-7.4021,-7.4033,-7.4076,-7.4099,-7.4077,-7.4196,-7.4174,-7.4131,-7.4061,-7.4185,-7.4233,-7.4253,-7.399,-7.3988,-7.3986,-7.3985,0,0,-7.3874,-7.3904,-7.3926,-7.3945,-7.3972,-7.4015,-7.4084,-7.4129,-7.416,-7.4188,-7.4244,-7.4312,-7.4274,-7.4296,-7.4277,-7.4327,-7.4448,-7.4278,-7.4278,-7.4309,-7.4579,-7.4612,-7.4635,-7.4424,-7.4427,-7.443,-7.4578,0,-7.4016,-7.4137,-7.412,-7.4235,-7.4289,-7.4244,-7.4303,-7.4325,-7.4325,-7.4369,-7.4368,-7.4417,-7.4362,-7.4376,-7.4423,-7.4423,-7.4501,-7.4412,-7.4475,-7.4477,-7.4471,-7.466,-7.4694,-7.4833,-7.4596,-7.4599,-7.4602,0,-7.4198,-7.4237,-7.4358,-7.4379,-7.44,-7.4455,-7.4496,-7.4539,-7.4563,-7.4559,-7.4586,-7.4558,-7.4626,-7.4555,-7.4648,-7.4587,-7.4612,-7.4616,-7.4621,-7.4625,-7.4547,-7.467,-7.4876,-7.4897,-7.4631,-7.4629,-7.4627,0,-7.4328,-7.441,-7.4494,-7.4511,-7.4537,-7.4576,-7.4588,-7.4609,-7.4638,-7.4673,-7.4691,-7.4733,-7.4756,-7.4788,-7.4773,-7.4723,-7.4868,-7.4796,-7.4866,-7.4867,-7.4898,-7.4897,-7.5112,-7.4914,-7.4914,-7.4914,-7.4913,0,-7.4489,-7.4565,-7.4553,-7.4605,-7.4689,-7.4668,-7.4751,-7.4758,-7.4777,-7.4828,-7.479,-7.4838,-7.4815,-7.4861,-7.4849,-7.4928,-7.4938,-7.4936,-7.4932,-7.494,-7.494,-7.4955,-7.4945,-7.4919,-7.4918,-7.4917,-7.4916,0,-7.4648,-7.4643,-7.4732,-7.475,-7.4756,-7.4818,-7.4832,-7.488,-7.4878,-7.4943,-7.4957,-7.4953,-7.5006,-7.4994,-7.5051,-7.5043,-7.5142,-7.5126,-7.5135,-7.5131,-7.5203,-7.5196,-7.5435,-7.5465,-7.5248,-7.525,-7.5252,0,-7.4751,-7.4809,-7.4835,-7.4868,-7.4884,-7.4937,-7.4968,-7.495,-7.4982,-7.5016,-7.506,-7.511,-7.5149,-7.5236,-7.5237,-7.5281,-7.5265,-7.5346,-7.5271,-7.5278,-7.5267,-7.5264,-7.527,-7.536,-7.5363,-7.5365,-7.5366,0,-7.4935,-7.493,-7.4976,-7.5023,-7.5062,-7.5096,-7.5127,-7.5156,-7.514,-7.5179,-7.5235,-7.5265,-7.5325,-7.5376,-7.5417,-7.5427,-7.5395,-7.539,-7.5409,-7.5417,-7.5421,-7.5421,-7.5176,-7.5385,-7.5383,-7.5381,-7.538,-7.538,-7.5069,-7.5119,-7.5147,-7.52,-7.5222,-7.5253,-7.53,-7.5305,-7.5351,-7.5401,-7.5387,-7.545,-7.5473,-7.5526,-7.5541,-7.5589,-7.5559,-7.5586,-7.5593,-7.56,-7.5609,-7.5414,-7.5597,-7.5596,-7.5596,-7.5595,-7.5595,0,-7.5251,-7.5267,-7.5317,-7.5364,-7.5406,-7.5374,-7.5408,-7.5444,-7.5501,-7.5527,-7.5568,-7.5632,-7.5681,-7.5687,-7.5733,-7.5771,-7.5757,-7.5784,-7.5781,-7.5784,-7.5633,-7.5613,-7.5794,-7.5794,-7.5794,-7.5794,-7.5794,-7.5794,-7.5351,-7.5435,-7.5434,-7.5529,-7.5544,-7.5608,-7.563,-7.5658,-7.5679,-7.5753,-7.5795,-7.5799,-7.5817,-7.5865,-7.5909,-7.5909,-7.5928,-7.596,-7.5955,-7.5814,-7.5794,-7.5775,-7.5756,-7.5965,-7.5965,-7.6102,-7.6103,-7.6104]}]]